QPF
0.01 0.02 0.02 0.02 0.02 0.01 0.01 0.01 0.01 0.01 0.01 0.01 0.01 0.01 0.01 0.01 0.01 0.01 0.01 0.01 0.00 0.01 0.01 0.01 0.01 0.01 0.01 0.01 0.01 0.02 0.03 0.03 0.02 0.02 0.02 0.03 0.04 0.05
0.01 0.01 0.01 0.01 0.01 0.01 0.01 0.01 0.01 0.01 0.01 0.01 0.01 0.01 0.01 0.01 0.01 0.01 0.01 0.01 0.00 0.00 0.01 0.01 0.01 0.01 0.01 0.01 0.01 0.01 0.02 0.02 0.02 0.02 0.02 0.03 0.03 0.03
0.01 0.01 0.01 0.01 0.00 0.01 0.01 0.01 0.01 0.01 0.01 0.01 0.01 0.01 0.01 0.01 0.01 0.01 0.01 0.01 0.01 0.01 0.01 0.01 0.01 0.01 0.01 0.00 0.01 0.01 0.02 0.01 0.01 0.01 0.01 0.02 0.02 0.02
0.01 0.00 0.00 0.01 0.01 0.01 0.01 0.01 0.01 0.01 0.01 0.01 0.01 0.01 0.01 0.01 0.01 0.01 0.01 0.00 0.01 0.01 0.02 0.02 0.02 0.01 0.01 0.00 0.00 0.01 0.01 0.01 0.01 0.01 0.01 0.01 0.02 0.01
0.01 0.01 0.01 0.01 0.01 0.01 0.01 0.01 0.01 0.01 0.01 0.01 0.01 0.01 0.02 0.02 0.01 0.01 0.01 0.01 0.01 0.01 0.03 0.03 0.02 0.01 0.00 0.00 0.01 0.02 0.03 0.02 0.02 0.02 0.01 0.02 0.02 0.01
0.01 0.01 0.01 0.01 0.01 0.01 0.02 0.02 0.02 0.02 0.02 0.02 0.02 0.02 0.02 0.01 0.02 0.01 0.01 0.01 0.01 0.01 0.02 0.02 0.03 0.02 0.01 0.00 0.01 0.03 0.08 0.09 0.07 0.05 0.03 0.04 0.06 0.04
0.01 0.01 0.01 0.02 0.02 0.02 0.02 0.02 0.02 0.02 0.02 0.02 0.03 0.03 0.02 0.02 0.02 0.02 0.02 0.02 0.01 0.02 0.03 0.03 0.02 0.02 0.01 0.00 0.01 0.02 0.07 0.11 0.12 0.11 0.09 0.07 0.10 0.09
0.01 0.00 0.01 0.01 0.02 0.02 0.02 0.02 0.02 0.03 0.03 0.02 0.03 0.02 0.02 0.02 0.02 0.01 0.02 0.02 0.01 0.01 0.03 0.04 0.03 0.02 0.01 0.01 0.01 0.01 0.03 0.07 0.09 0.11 0.12 0.11 0.13 0.13
0.01 0.01 0.01 0.01 0.01 0.00 0.00 0.01 0.01 0.02 0.01 0.02 0.02 0.03 0.02 0.02 0.02 0.02 0.02 0.03 0.03 0.02 0.03 0.04 0.04 0.03 0.02 0.01 0.00 0.00 0.01 0.02 0.05 0.07 0.08 0.08 0.09 0.11
0.01 0.01 0.01 0.01 0.01 0.00 0.00 0.00 0.01 0.01 0.01 0.01 0.02 0.03 0.03 0.03 0.03 0.03 0.04 0.04 0.04 0.03 0.04 0.05 0.06 0.05 0.03 0.02 0.01 0.00 0.00 0.00 0.01 0.03 0.05 0.06 0.06 0.08
0.01 0.01 0.01 0.01 0.01 0.01 0.01 0.01 0.01 0.01 0.01 0.01 0.02 0.02 0.02 0.03 0.03 0.03 0.04 0.05 0.04 0.04 0.04 0.05 0.06 0.07 0.05 0.03 0.02 0.01 0.01 0.00 0.01 0.01 0.03 0.04 0.05 0.05
0.01 0.01 0.01 0.01 0.01 0.01 0.01 0.01 0.01 0.01 0.02 0.01 0.02 0.02 0.01 0.02 0.02 0.02 0.02 0.03 0.04 0.04 0.03 0.03 0.05 0.06 0.07 0.05 0.03 0.02 0.01 0.01 0.01 0.01 0.02 0.03 0.04 0.04
0.01 0.01 0.01 0.01 0.01 0.01 0.01 0.01 0.02 0.02 0.02 0.01 0.02 0.01 0.01 0.01 0.01 0.01 0.01 0.02 0.03 0.03 0.03 0.02 0.04 0.06 0.06 0.06 0.05 0.03 0.02 0.02 0.02 0.02 0.02 0.02 0.03 0.04
0.01 0.01 0.01 0.01 0.01 0.01 0.01 0.02 0.03 0.03 0.02 0.02 0.01 0.01 0.01 0.00 0.01 0.01 0.01 0.01 0.02 0.03 0.04 0.03 0.03 0.04 0.05 0.05 0.05 0.04 0.03 0.02 0.02 0.02 0.02 0.02 0.02 0.02
0.02 0.02 0.02 0.01 0.01 0.01 0.01 0.02 0.03 0.03 0.02 0.02 0.01 0.01 0.01 0.01 0.01 0.01 0.01 0.01 0.01 0.01 0.02 0.02 0.03 0.03 0.05 0.06 0.05 0.05 0.04 0.03 0.02 0.02 0.02 0.02 0.02 0.02
0.02 0.02 0.02 0.01 0.01 0.01 0.01 0.01 0.02 0.03 0.02 0.02 0.02 0.01 0.01 0.01 0.01 0.01 0.01 0.01 0.01 0.01 0.01 0.02 0.02 0.02 0.03 0.03 0.04 0.04 0.04 0.04 0.03 0.02 0.02 0.02 0.02 0.02
0.02 0.02 0.01 0.01 0.01 0.01 0.01 0.01 0.01 0.02 0.02 0.02 0.02 0.01 0.01 0.01 0.01 0.02 0.01 0.01 0.01 0.01 0.01 0.02 0.02 0.02 0.03 0.03 0.04 0.03 0.03 0.03 0.03 0.02 0.03 0.03 0.03 0.03
0.02 0.01 0.01 0.01 0.01 0.01 0.01 0.01 0.01 0.01 0.01 0.02 0.02 0.02 0.01 0.01 0.01 0.02 0.02 0.02 0.01 0.01 0.02 0.02 0.02 0.03 0.04 0.05 0.06 0.06 0.03 0.03 0.02 0.02 0.02 0.03 0.04 0.04
0.02 0.01 0.01 0.01 0.01 0.02 0.02 0.02 0.01 0.01 0.01 0.02 0.03 0.02 0.02 0.01 0.01 0.01 0.02 0.02 0.02 0.02 0.02 0.02 0.03 0.03 0.04 0.04 0.05 0.06 0.05 0.03 0.02 0.03 0.03 0.02 0.03 0.03
0.02 0.02 0.03 0.03 0.03 0.03 0.04 0.04 0.04 0.03 0.03 0.03 0.03 0.03 0.02 0.02 0.02 0.02 0.02 0.03 0.02 0.02 0.02 0.02 0.02 0.03 0.04 0.04 0.05 0.06 0.07 0.07 0.04 0.03 0.03 0.03 0.03 0.03
0.01 0.01 0.02 0.02 0.03 0.03 0.04 0.04 0.04 0.04 0.04 0.04 0.04 0.03 0.03 0.02 0.02 0.02 0.02 0.03 0.03 0.02 0.02 0.02 0.02 0.03 0.03 0.05 0.06 0.07 0.08 0.09 0.09 0.07 0.05 0.04 0.04 0.03
0.01 0.01 0.01 0.01 0.02 0.02 0.03 0.03 0.03 0.04 0.04 0.04 0.04 0.04 0.03 0.03 0.03 0.03 0.03 0.03 0.03 0.02 0.02 0.02 0.02 0.03 0.04 0.04 0.05 0.05 0.06 0.07 0.08 0.10 0.09 0.07 0.06 0.05
0.01 0.01 0.01 0.01 0.01 0.02 0.02 0.02 0.03 0.03 0.03 0.04 0.04 0.04 0.04 0.03 0.03 0.03 0.03 0.03 0.03 0.04 0.04 0.04 0.04 0.04 0.04 0.04 0.04 0.04 0.04 0.05 0.05 0.06 0.07 0.08 0.07 0.06
MSLP
1018.65 1018.82 1019.00 1019.20 1019.38 1019.53 1019.62 1019.66 1019.67 1019.67 1019.69 1019.75 1019.88 1020.08 1020.34 1020.64 1020.96 1021.26 1021.52 1021.72 1021.87 1021.95 1021.99 1022.00 1022.00 1022.00 1022.00 1022.02 1022.03 1022.04 1022.03 1022.01 1021.96 1021.88 1021.78 1021.66 1021.51 1021.34
1018.57 1018.75 1018.96 1019.18 1019.38 1019.54 1019.64 1019.68 1019.68 1019.66 1019.65 1019.67 1019.76 1019.91 1020.13 1020.41 1020.71 1021.02 1021.31 1021.56 1021.76 1021.91 1022.01 1022.09 1022.14 1022.19 1022.23 1022.27 1022.30 1022.31 1022.31 1022.28 1022.22 1022.13 1022.01 1021.85 1021.67 1021.45
1018.41 1018.62 1018.85 1019.10 1019.32 1019.51 1019.62 1019.68 1019.68 1019.65 1019.62 1019.62 1019.66 1019.78 1019.96 1020.20 1020.49 1020.79 1021.08 1021.35 1021.57 1021.76 1021.90 1022.02 1022.11 1022.19 1022.26 1022.32 1022.37 1022.41 1022.42 1022.40 1022.35 1022.26 1022.13 1021.95 1021.74 1021.49
1018.18 1018.42 1018.69 1018.97 1019.23 1019.44 1019.59 1019.67 1019.69 1019.67 1019.63 1019.61 1019.64 1019.72 1019.87 1020.08 1020.32 1020.59 1020.86 1021.11 1021.33 1021.52 1021.67 1021.79 1021.89 1021.98 1022.07 1022.16 1022.23 1022.30 1022.35 1022.36 1022.34 1022.27 1022.14 1021.96 1021.74 1021.46
1017.93 1018.20 1018.50 1018.82 1019.12 1019.37 1019.55 1019.66 1019.71 1019.72 1019.70 1019.68 1019.70 1019.76 1019.88 1020.04 1020.24 1020.46 1020.68 1020.88 1021.06 1021.20 1021.31 1021.41 1021.50 1021.58 1021.68 1021.79 1021.89 1022.00 1022.09 1022.15 1022.17 1022.14 1022.05 1021.89 1021.67 1021.39
1017.67 1017.97 1018.31 1018.66 1018.99 1019.28 1019.51 1019.66 1019.75 1019.78 1019.79 1019.79 1019.81 1019.86 1019.96 1020.08 1020.23 1020.38 1020.53 1020.65 1020.75 1020.82 1020.87 1020.91 1020.96 1021.03 1021.12 1021.24 1021.38 1021.53 1021.67 1021.79 1021.88 1021.90 1021.86 1021.73 1021.54 1021.27
1017.45 1017.77 1018.13 1018.51 1018.87 1019.19 1019.44 1019.64 1019.76 1019.84 1019.88 1019.91 1019.94 1019.99 1020.06 1020.14 1020.23 1020.31 1020.38 1020.41 1020.42 1020.41 1020.38 1020.36 1020.35 1020.39 1020.47 1020.59 1020.76 1020.94 1021.14 1021.32 1021.46 1021.54 1021.55 1021.48 1021.32 1021.08
1017.28 1017.61 1017.98 1018.36 1018.74 1019.07 1019.35 1019.57 1019.73 1019.84 1019.91 1019.97 1020.02 1020.07 1020.13 1020.18 1020.22 1020.24 1020.22 1020.18 1020.10 1020.00 1019.89 1019.80 1019.75 1019.75 1019.80 1019.92 1020.10 1020.31 1020.54 1020.77 1020.96 1021.09 1021.16 1021.13 1021.01 1020.81
1017.15 1017.48 1017.85 1018.23 1018.60 1018.94 1019.22 1019.45 1019.63 1019.77 1019.87 1019.95 1020.02 1020.07 1020.12 1020.16 1020.16 1020.13 1020.06 1019.95 1019.81 1019.64 1019.47 1019.33 1019.23 1019.19 1019.22 1019.32 1019.49 1019.71 1019.95 1020.19 1020.40 1020.57 1020.66 1020.67 1020.59 1020.42
1017.09 1017.41 1017.76 1018.12 1018.46 1018.78 1019.06 1019.28 1019.47 1019.61 1019.73 1019.83 1019.91 1019.98 1020.03 1020.06 1020.05 1020.00 1019.90 1019.76 1019.58 1019.38 1019.18 1019.00 1018.87 1018.79 1018.79 1018.86 1019.00 1019.19 1019.41 1019.63 1019.83 1019.99 1020.09 1020.12 1020.06 1019.91
1017.08 1017.38 1017.70 1018.03 1018.34 1018.63 1018.88 1019.08 1019.26 1019.40 1019.52 1019.62 1019.72 1019.80 1019.86 1019.90 1019.89 1019.85 1019.75 1019.61 1019.43 1019.23 1019.02 1018.84 1018.69 1018.59 1018.55 1018.58 1018.66 1018.79 1018.94 1019.11 1019.26 1019.39 1019.46 1019.48 1019.42 1019.30
1017.13 1017.41 1017.70 1017.98 1018.25 1018.50 1018.70 1018.88 1019.03 1019.15 1019.27 1019.37 1019.47 1019.56 1019.64 1019.68 1019.70 1019.68 1019.61 1019.49 1019.34 1019.17 1018.99 1018.81 1018.66 1018.54 1018.47 1018.43 1018.44 1018.49 1018.55 1018.63 1018.71 1018.76 1018.79 1018.78 1018.72 1018.60
1017.23 1017.49 1017.74 1017.98 1018.20 1018.40 1018.56 1018.70 1018.81 1018.91 1019.01 1019.10 1019.19 1019.28 1019.36 1019.43 1019.47 1019.48 1019.45 1019.38 1019.28 1019.15 1019.01 1018.86 1018.71 1018.58 1018.47 1018.37 1018.30 1018.24 1018.20 1018.17 1018.15 1018.13 1018.10 1018.06 1017.98 1017.87
1017.37 1017.60 1017.81 1018.01 1018.18 1018.33 1018.44 1018.53 1018.61 1018.67 1018.74 1018.81 1018.89 1018.97 1019.05 1019.12 1019.18 1019.21 1019.22 1019.20 1019.15 1019.08 1018.98 1018.86 1018.73 1018.59 1018.44 1018.28 1018.13 1017.98 1017.83 1017.70 1017.59 1017.49 1017.40 1017.33 1017.25 1017.16
1017.52 1017.71 1017.88 1018.03 1018.16 1018.25 1018.32 1018.36 1018.40 1018.43 1018.46 1018.50 1018.55 1018.61 1018.67 1018.74 1018.80 1018.84 1018.88 1018.89 1018.89 1018.86 1018.80 1018.71 1018.60 1018.45 1018.27 1018.07 1017.85 1017.62 1017.40 1017.18 1016.99 1016.84 1016.72 1016.63 1016.56 1016.49
1017.59 1017.76 1017.89 1017.99 1018.07 1018.11 1018.13 1018.14 1018.13 1018.13 1018.12 1018.13 1018.14 1018.17 1018.20 1018.24 1018.28 1018.33 1018.36 1018.40 1018.41 1018.41 1018.39 1018.32 1018.22 1018.08 1017.89 1017.67 1017.41 1017.13 1016.85 1016.59 1016.36 1016.18 1016.05 1015.97 1015.93 1015.90
1017.55 1017.67 1017.76 1017.81 1017.84 1017.84 1017.83 1017.80 1017.76 1017.72 1017.68 1017.65 1017.63 1017.61 1017.61 1017.61 1017.62 1017.63 1017.66 1017.68 1017.71 1017.72 1017.71 1017.66 1017.58 1017.45 1017.27 1017.04 1016.78 1016.49 1016.20 1015.94 1015.71 1015.54 1015.42 1015.37 1015.37 1015.39
1017.30 1017.38 1017.42 1017.43 1017.42 1017.39 1017.34 1017.28 1017.22 1017.16 1017.10 1017.04 1016.98 1016.93 1016.88 1016.84 1016.80 1016.78 1016.77 1016.77 1016.78 1016.79 1016.79 1016.76 1016.69 1016.59 1016.43 1016.23 1015.99 1015.73 1015.47 1015.23 1015.04 1014.90 1014.83 1014.83 1014.87 1014.94
1016.83 1016.86 1016.86 1016.83 1016.78 1016.72 1016.65 1016.58 1016.51 1016.43 1016.36 1016.29 1016.21 1016.12 1016.04 1015.96 1015.88 1015.81 1015.77 1015.74 1015.73 1015.72 1015.72 1015.70 1015.66 1015.58 1015.47 1015.31 1015.12 1014.92 1014.71 1014.53 1014.39 1014.31 1014.29 1014.33 1014.41 1014.53
1016.12 1016.10 1016.06 1015.99 1015.91 1015.84 1015.76 1015.69 1015.62 1015.56 1015.49 1015.42 1015.33 1015.24 1015.13 1015.02 1014.91 1014.81 1014.72 1014.66 1014.63 1014.61 1014.60 1014.60 1014.58 1014.54 1014.47 1014.38 1014.26 1014.12 1013.99 1013.87 1013.79 1013.76 1013.78 1013.86 1013.97 1014.10
1015.21 1015.15 1015.07 1014.97 1014.88 1014.79 1014.71 1014.65 1014.61 1014.56 1014.52 1014.47 1014.40 1014.30 1014.20 1014.07 1013.94 1013.82 1013.71 1013.62 1013.57 1013.54 1013.53 1013.54 1013.55 1013.56 1013.55 1013.51 1013.46 1013.39 1013.33 1013.28 1013.25 1013.26 1013.31 1013.40 1013.51 1013.64
1014.16 1014.07 1013.96 1013.84 1013.73 1013.64 1013.58 1013.54 1013.52 1013.51 1013.50 1013.47 1013.43 1013.36 1013.27 1013.15 1013.01 1012.88 1012.76 1012.66 1012.60 1012.57 1012.57 1012.59 1012.64 1012.68 1012.72 1012.75 1012.76 1012.76 1012.76 1012.75 1012.76 1012.79 1012.85 1012.92 1013.01 1013.11
1013.05 1012.93 1012.79 1012.66 1012.55 1012.46 1012.41 1012.39 1012.40 1012.42 1012.45 1012.47 1012.46 1012.42 1012.35 1012.25 1012.13 1012.00 1011.88 1011.79 1011.72 1011.70 1011.71 1011.76 1011.83 1011.91 1012.00 1012.09 1012.16 1012.21 1012.25 1012.28 1012.31 1012.34 1012.38 1012.42 1012.47 1012.51
Thickness
5658 5657 5656 5655 5655 5654 5654 5653 5651 5651 5654 5657 5657 5657 5655 5654 5652 5653 5653 5651 5650 5649 5649 5649 5649 5650 5649 5650 5650 5651 5652 5652 5653 5654 5654 5654 5655 5657
5652 5651 5650 5651 5650 5649 5648 5648 5648 5647 5648 5652 5651 5651 5650 5649 5648 5648 5648 5646 5645 5645 5644 5645 5645 5645 5645 5645 5646 5646 5647 5648 5648 5649 5649 5650 5651 5651
5649 5648 5646 5645 5644 5643 5642 5642 5642 5641 5641 5645 5646 5646 5645 5644 5643 5643 5644 5643 5644 5642 5640 5640 5640 5640 5640 5640 5641 5642 5642 5643 5644 5644 5645 5646 5646 5647
5645 5643 5641 5639 5638 5638 5636 5636 5636 5636 5635 5636 5639 5639 5639 5639 5638 5638 5639 5639 5639 5638 5636 5635 5635 5635 5635 5635 5636 5637 5638 5638 5639 5639 5640 5641 5642 5642
5639 5638 5636 5635 5633 5632 5630 5630 5630 5630 5629 5630 5631 5632 5632 5632 5631 5632 5633 5634 5634 5634 5632 5631 5631 5631 5631 5631 5631 5632 5633 5633 5634 5634 5634 5635 5636 5637
5633 5632 5630 5629 5627 5626 5625 5624 5623 5623 5623 5624 5625 5625 5625 5625 5625 5625 5626 5628 5629 5630 5629 5628 5627 5626 5626 5626 5626 5627 5627 5627 5628 5628 5629 5630 5630 5631
5628 5626 5624 5621 5618 5618 5617 5616 5616 5617 5617 5617 5617 5617 5618 5617 5618 5619 5620 5622 5624 5624 5624 5624 5624 5624 5624 5623 5622 5621 5621 5621 5621 5622 5623 5623 5624 5626
5622 5620 5618 5615 5612 5609 5607 5606 5606 5608 5610 5609 5610 5610 5611 5612 5611 5611 5613 5614 5616 5619 5617 5619 5619 5619 5619 5619 5618 5616 5615 5615 5615 5616 5616 5617 5618 5620
5616 5614 5612 5610 5606 5606 5604 5601 5600 5599 5599 5602 5603 5604 5604 5605 5604 5604 5605 5606 5608 5611 5609 5612 5613 5613 5613 5613 5611 5609 5609 5609 5609 5609 5610 5610 5612 5613
5609 5607 5606 5603 5600 5599 5599 5599 5598 5597 5594 5594 5596 5598 5597 5596 5597 5597 5598 5599 5601 5602 5602 5603 5606 5605 5606 5606 5604 5603 5602 5602 5602 5602 5603 5604 5605 5606
5602 5600 5599 5597 5593 5591 5592 5593 5592 5591 5589 5587 5587 5587 5587 5586 5587 5589 5590 5591 5593 5595 5594 5593 5597 5597 5598 5599 5597 5595 5595 5595 5595 5595 5596 5597 5598 5599
5595 5593 5589 5588 5585 5583 5585 5586 5585 5585 5584 5584 5583 5582 5582 5581 5579 5581 5583 5583 5585 5588 5588 5584 5586 5586 5589 5592 5590 5589 5588 5588 5588 5588 5589 5590 5590 5592
5588 5586 5584 5579 5578 5576 5576 5577 5575 5575 5576 5577 5578 5578 5577 5576 5575 5574 5575 5575 5576 5578 5578 5575 5576 5576 5577 5580 5582 5582 5582 5582 5582 5583 5583 5583 5583 5584
5580 5578 5575 5571 5569 5568 5568 5567 5566 5566 5568 5569 5569 5569 5569 5568 5568 5568 5567 5567 5568 5569 5569 5567 5567 5567 5568 5570 5573 5574 5574 5574 5575 5576 5577 5577 5577 5577
5570 5567 5564 5562 5561 5561 5559 5558 5558 5560 5560 5560 5561 5561 5561 5560 5560 5559 5559 5559 5560 5560 5560 5559 5559 5559 5560 5561 5564 5565 5566 5567 5567 5568 5569 5570 5571 5572
5561 5559 5556 5554 5553 5552 5552 5552 5552 5552 5551 5551 5552 5552 5552 5551 5551 5551 5551 5551 5552 5553 5552 5551 5551 5551 5552 5553 5554 5556 5557 5558 5559 5559 5561 5563 5564 5566
5552 5551 5550 5550 5548 5547 5546 5545 5544 5544 5543 5543 5543 5543 5543 5543 5543 5543 5542 5543 5543 5544 5544 5543 5542 5542 5542 5544 5546 5547 5548 5549 5550 5551 5552 5554 5557 5559
5543 5544 5543 5542 5540 5539 5538 5537 5536 5535 5534 5534 5535 5534 5534 5534 5534 5534 5533 5533 5534 5535 5536 5535 5534 5534 5534 5536 5535 5538 5539 5540 5542 5543 5544 5546 5549 5552
5535 5536 5535 5534 5532 5530 5529 5528 5527 5526 5525 5525 5525 5525 5525 5525 5525 5525 5524 5524 5525 5526 5527 5526 5525 5525 5526 5530 5531 5527 5529 5531 5532 5534 5536 5538 5541 5544
5528 5527 5526 5524 5523 5521 5520 5519 5518 5518 5517 5516 5516 5516 5516 5516 5516 5516 5516 5516 5516 5517 5518 5517 5516 5516 5517 5518 5520 5520 5518 5521 5523 5526 5528 5530 5533 5534
5520 5519 5517 5516 5514 5513 5511 5510 5509 5509 5509 5508 5508 5507 5507 5507 5508 5508 5508 5507 5506 5508 5509 5509 5509 5506 5507 5508 5509 5512 5513 5511 5513 5515 5518 5521 5524 5527
5513 5511 5509 5507 5505 5504 5502 5501 5500 5500 5500 5499 5499 5499 5499 5498 5498 5498 5499 5499 5500 5500 5500 5500 5499 5499 5499 5500 5502 5504 5505 5505 5505 5504 5505 5507 5511 5516
5505 5503 5501 5499 5497 5495 5494 5493 5492 5492 5491 5490 5489 5489 5489 5489 5489 5489 5489 5490 5490 5491 5491 5491 5490 5490 5491 5492 5493 5495 5496 5497 5498 5499 5500 5499 5500 5502